This is the latest recevied weather packets stored in our database for station/object KM6YFK-13. If no packets are shown the sender has not sent any weather packets the latest 10 day(s).
| Time | Temp. | Humidity | Pressure | Rain* | Wind** | Luminosity | Snow |
|---|---|---|---|---|---|---|---|
| 1777906407 | 23.89° C | 53% | 1018.4 hPa | 0 mm | - | 780 W/m² | - |
| 1777906108 | 23.89° C | 53% | 1018.4 hPa | 0 mm | - | 762 W/m² | - |
| 1777905808 | 24.44° C | 54% | 1018.3 hPa | 0 mm | - | 743 W/m² | - |
| 1777905508 | 24.44° C | 56% | 1018.3 hPa | 0 mm | - | 730 W/m² | - |
| 1777905208 | 23.89° C | 56% | 1018.2 hPa | 0 mm | - | 713 W/m² | - |
| 1777904908 | 23.89° C | 54% | 1018.2 hPa | 0 mm | - | 701 W/m² | - |
| 1777904608 | 23.89° C | 55% | 1018.2 hPa | 0 mm | - | 691 W/m² | - |
| 1777904307 | 23.89° C | 54% | 1018.1 hPa | 0 mm | - | 712 W/m² | - |
| 1777904008 | 23.33° C | 58% | 1018.1 hPa | 0 mm | - | 743 W/m² | - |
| 1777903707 | 23.89° C | 57% | 1018.1 hPa | 0 mm | - | 220 W/m² | - |
| 1777903408 | 23.89° C | 54% | 1018 hPa | 0 mm | - | 625 W/m² | - |
| 1777903109 | 23.89° C | 55% | 1017.9 hPa | 0 mm | - | 601 W/m² | - |
| 1777902808 | 23.89° C | 55% | 1017.9 hPa | 0 mm | - | 578 W/m² | - |
| 1777902511 | 23.33° C | 54% | 1017.8 hPa | 0 mm | - | 559 W/m² | - |
| 1777902208 | 23.89° C | 53% | 1017.8 hPa | 0 mm | - | 537 W/m² | - |
| 1777901907 | 23.33° C | 55% | 1017.9 hPa | 0 mm | - | 516 W/m² | - |
| 1777901608 | 23.33° C | 53% | 1017.9 hPa | 0 mm | - | 501 W/m² | - |
| 1777901308 | 23.33° C | 53% | 1017.9 hPa | 0 mm | - | 481 W/m² | - |
| 1777901008 | 23.33° C | 55% | 1017.8 hPa | 0 mm | - | 463 W/m² | - |
| 1777900707 | 23.33° C | 55% | 1017.8 hPa | 0 mm | - | 449 W/m² | - |
| 1777900408 | 23.33° C | 57% | 1017.8 hPa | 0 mm | - | 451 W/m² | - |
| 1777900108 | 22.78° C | 58% | 1017.7 hPa | 0 mm | - | 450 W/m² | - |
| 1777899807 | 22.78° C | 59% | 1017.8 hPa | 0 mm | - | 486 W/m² | - |
| 1777899508 | 22.78° C | 61% | 1017.7 hPa | 0 mm | - | 172 W/m² | - |
| 1777899208 | 22.78° C | 60% | 1017.7 hPa | 0 mm | - | 107 W/m² | - |
* Rain latest hour (hover to see other rain measurements)
** Current wind speed in m/s (hover to see current wind gust speed)